Regional Weather Roundup
Issued by NWS

Home | Current Version | Previous Version | Text Only | Print | Product List | Glossary On
Versions: 1 2 3 4 5 6 7 8 9 10 11 12 13 14 15 16 17 18 19 20 21 22 23 24 25 26 27 28 29 30 31 32 33 34 35 36 37 38 39 40 41 42 43 44 45 46 47 48 49 50
000
ASUS45 KABQ 310010
RWRNM
NEW MEXICO REGIONAL WEATHER ROUNDUP
NATIONAL WEATHER SERVICE ALBUQUERQUE NM
600 PM MDT MON MAY 30 2016

NOTE: "FAIR" MEANS FEW OR NO CLOUDS BELOW 12,000 FEET AGL WITH NO
       SIGNIFICANT WEATHER OR OBSTRUCTIONS TO VISION.

      THIS PRODUCT IS RELEASED AS TWO VERSIONS.  ONE VERSION NEAR
      THE TOP OF THE HOUR CONTAINING PRELIMINARY DATA FROM ALBUQUERQUE
      AND OTHER STATIONS.  A FINAL VERSION WITH ADDITIONAL DATA IS
      ISSUED ABOUT 10 MINUTES AFTER THE HOUR.

NMZ501-503-504-510>518-310100-
NORTHWEST PLATEAU/NORTHCENTRAL MOUNTAINS

CITY           SKY/WX    TMP DP  RH WIND       PRES   REMARKS
FARMINGTON     FAIR      81  12   7 W10       29.95F
6HR MIN TEMP:  76; 6HR MAX TEMP:  83;

LOS ALAMOS     FAIR      75  17  11 S8        30.07S
SANTA FE       FAIR      79   9   7 W9        30.00F
6HR MIN TEMP:  75; 6HR MAX TEMP:  83;

TAOS           FAIR      73  19  13 W6        30.06S
ANGEL FIRE     FAIR      66  23  19 W12       30.14F

$$
NMZ402-403-502-505>509-310100-
WESTCENTRAL MOUNTAINS/SOUTHWEST MOUNTAINS

CITY           SKY/WX    TMP DP  RH WIND       PRES   REMARKS
GALLUP         FAIR      77  17  10 SW12      30.04S
6HR MIN TEMP:  71; 6HR MAX TEMP:  80;

GRANTS         FAIR      75  21  13 W12       30.04S
SILVER CITY      N/A     77  32  19 W12       30.00F

$$
NMZ407-409-411-412-310100-
SOUTHERN DESERTS

CITY           SKY/WX    TMP DP  RH WIND       PRES   REMARKS
LORDSBURG      TSTM      64  48  55 SW15G39   29.97R
DEMING         FAIR      79  45  29 NW9       29.92F
6HR MIN TEMP:  69; 6HR MAX TEMP:  89; 6HR PCP:  0.13;

LAS CRUCES     FAIR      78  44  29 E9        29.95S
HOLLOMAN AFB   FAIR      79  44  28 SE24      29.93S
ALAMOGORDO     FAIR      75  43  31 S22G31    29.96F
T OR C         PTSUNNY   79  36  21 S14       29.94F
6HR MIN TEMP:  76; 6HR MAX TEMP:  87; 6HR PCP: TRACE;


$$
NMZ519>523-310100-
CENTRAL VALLEYS/CENTRAL HIGHLANDS

CITY           SKY/WX    TMP DP  RH WIND       PRES   REMARKS
ALBUQUERQUE    PTSUNNY   77  31  18 SW23G36   29.97R
6HR MIN TEMP:  76; 6HR MAX TEMP:  84;

DOUBLE EAGLE   PTSUNNY   79  28  15 SW15      30.00S
MORIARTY ARPT  FAIR      81  17   9 SW12G18   30.01F
CLINES CORNERS FAIR      73  20  13 W12       30.05F
6HR MIN TEMP:  71; 6HR MAX TEMP:  78;

BELEN          FAIR      79  28  15 NW7       29.95F
6HR MIN TEMP:  74; 6HR MAX TEMP:  84;

SOCORRO        FAIR      83  28  13 SW15G22   29.92F
6HR MIN TEMP:  80; 6HR MAX TEMP:  86;


$$
NMZ524>526-539-540-310100-
SOUTHCENTRAL MOUNTAINS

CITY           SKY/WX    TMP DP  RH WIND       PRES   REMARKS
RUIDOSO          N/A     59  39  47 SW10G38   30.14S

$$
NMZ527>531-310100-
NORTHEAST HIGHLANDS/NORTHEAST PLAINS

CITY           SKY/WX    TMP DP  RH WIND       PRES   REMARKS
LAS VEGAS      FAIR      76  21  12 S9        30.02F
6HR MIN TEMP:  72; 6HR MAX TEMP:  79;

RATON          FAIR      75  31  19 SE16G26   29.98F
6HR MIN TEMP:  68; 6HR MAX TEMP:  79;

CLAYTON        FAIR      76  32  20 S32G43    29.92F
6HR MIN TEMP:  73; 6HR MAX TEMP:  81;


$$
NMZ532>537-310100-
EASTCENTRAL PLAINS

CITY           SKY/WX    TMP DP  RH WIND       PRES   REMARKS
TUCUMCARI      FAIR      88  31  13 S10G22    29.87F
6HR MIN TEMP:  76; 6HR MAX TEMP:  90;

CANNON AFB     FAIR      85  49  29 S13       29.91F
6HR MIN TEMP:  75; 6HR MAX TEMP:  85; 6HR PCP: TRACE;

CLOVIS AIRPORT FAIR      82  48  30 S12       29.92F

$$
NMZ028-029-538-310100-
SOUTHEAST PLAINS

CITY           SKY/WX    TMP DP  RH WIND       PRES   REMARKS
ROSWELL        FAIR      80  48  32 S18       29.93R
6HR MIN TEMP:  73; 6HR MAX TEMP:  90; 6HR PCP: TRACE;

ARTESIA        FAIR      79  55  44 SW10      29.94R THUNDER
CARLSBAD       FAIR      76  57  51 SE6       29.89F
6HR MIN TEMP:  73; 6HR MAX TEMP:  84; 6HR PCP: TRACE;

HOBBS          MOSUNNY   81  54  39 S9G16     29.93F


$$




USA.gov is the U.S. government's official web portal to all federal, state and local government web resources and services.